GFSSGP_con_sbcape_015.txt.gz
CAPE
0 0 0 0 0 0 0 0 0 0 0 0 0 0 0 0 0 0 0 0 78 0 287 1290 1735 1673 1432 1397 1340 1254 1197 1101 586 517 366 24 0 0 0 0 0 0 0 0 0 0 8 87 5
0 0 0 0 0 1 6 0 0 0 0 0 0 0 0 0 0 0 0 0 129 150 488 795 1846 1742 1783 1667 1515 1421 1430 1316 926 683 594 180 0 0 0 23 18 22 14 9 4 1 6 102 178
0 0 0 2 0 2 8 0 0 0 0 0 0 0 0 0 0 0 0 0 10 97 97 571 1915 1823 1948 1824 1795 1772 1773 1481 933 534 399 314 250 273 98 85 120 87 67 45 17 4 2 22 140
0 0 0 0 0 0 0 0 0 0 0 0 0 0 0 0 0 0 0 0 0 0 145 1389 1946 1964 2195 1804 1950 1927 1633 1267 796 290 294 38 29 270 198 83 83 93 102 85 72 11 8 14 175
0 0 0 0 1 0 0 0 0 0 0 0 0 0 0 0 0 0 0 0 0 0 398 1225 1987 1822 1304 799 938 1106 551 204 109 108 63 36 47 61 89 111 139 124 120 127 164 141 108 216 239
0 0 0 0 0 0 0 0 0 0 0 0 0 0 0 0 0 0 0 0 0 0 0 39 805 945 994 1117 1117 824 269 0 0 0 0 0 0 13 21 50 45 75 43 85 185 308 425 383 216
0 0 0 0 0 0 0 0 0 0 0 0 0 0 0 0 0 0 0 0 0 0 0 0 7 301 1132 1089 1063 235 0 0 0 0 0 0 0 0 2 7 15 22 82 122 356 478 481 543 388
0 0 0 0 0 0 0 0 0 0 0 0 0 0 0 0 0 0 0 0 0 0 0 0 0 0 0 9 338 1 0 0 0 0 0 0 0 0 0 1 6 56 184 304 648 547 433 593 529
0 0 0 0 0 0 0 0 0 0 0 0 0 0 0 0 0 0 0 0 0 0 0 0 0 0 0 0 0 40 22 10 7 7 0 0 0 0 0 2 39 296 442 450 608 665 578 754 510
2 0 0 0 0 0 0 0 0 0 0 0 0 0 0 0 0 0 0 0 0 0 0 0 0 0 0 0 0 0 0 4 0 0 0 0 0 0 0 0 22 235 494 680 705 707 668 415 26
0 0 0 0 0 0 0 0 0 0 0 0 0 0 0 0 0 0 0 0 0 0 0 0 0 0 0 0 0 0 0 0 0 0 0 0 0 0 0 0 0 0 236 257 520 457 414 267 17
3 0 0 0 0 0 0 0 0 0 0 0 0 0 0 0 0 0 0 0 0 0 0 0 0 0 4 5 0 0 0 0 0 0 0 0 0 0 0 0 0 0 28 144 270 149 168 102 9
2 0 0 0 0 0 0 0 0 0 0 0 0 0 0 0 0 0 0 0 0 0 0 0 0 17 94 51 0 0 0 0 0 0 0 0 0 2 0 0 0 0 0 105 167 199 136 33 6
0 0 0 0 0 0 0 0 0 0 0 0 0 0 0 0 0 0 0 0 0 0 0 0 19 36 25 3 0 0 0 0 0 0 0 1 12 2 0 0 0 0 0 24 98 155 241 150 0
0 0 0 0 0 0 0 0 0 0 0 0 0 0 0 0 0 0 0 0 0 0 0 0 0 0 0 0 0 0 0 0 0 0 9 22 33 17 0 10 15 0 0 4 129 79 156 177 69
0 0 0 0 0 0 0 0 0 0 0 0 0 0 0 0 0 0 0 0 0 0 0 0 20 0 13 0 19 0 0 0 5 0 8 15 46 31 25 40 53 1 0 2 111 110 173 219 156
0 0 0 0 0 0 0 0 0 0 0 0 0 0 0 0 0 0 0 0 0 0 0 0 0 0 42 0 0 0 65 16 7 0 0 0 2 21 34 4 40 2 16 0 93 88 154 151 171
0 0 0 0 0 0 0 0 0 0 0 0 0 0 1 0 0 0 0 0 0 0 0 0 0 0 4 3 55 0 44 57 29 34 0 0 0 0 54 60 51 6 0 5 0 91 75 121 57
0 0 0 0 0 0 0 0 0 0 0 0 15 1 1 0 0 0 0 0 0 0 3 51 48 0 3 127 45 101 13 2 24 25 16 0 0 0 9 74 39 72 1 3 44 37 74 71 19
0 0 0 0 0 2 0 0 0 14 0 9 0 0 0 0 0 0 6 0 0 0 0 153 3 19 151 134 168 136 114 60 12 34 44 28 13 2 23 110 62 107 54 104 90 78 24 16 98
0 0 0 0 0 0 0 0 0 0 1 0 0 0 0 0 0 2 9 0 0 0 0 17 9 151 331 222 207 22 0 19 19 18 44 19 76 51 93 76 36 110 49 74 95 34 35 56 51
0 0 0 0 0 0 0 0 0 0 0 0 0 0 0 0 0 0 26 0 0 0 0 26 67 203 317 149 195 120 4 11 13 6 38 29 55 59 96 75 94 58 90 93 96 26 18 23 134
0 0 0 0 0 0 0 0 0 0 0 0 0 0 0 0 0 6 23 0 0 0 0 0 77 251 202 230 148 24 34 24 4 0 0 2 4 92 146 174 57 71 91 96 164 58 28 47 81
0 0 0 0 1 0 0 0 0 0 0 0 0 0 0 0 0 3 17 0 0 0 0 83 88 238 211 70 70 0 40 36 0 0 0 9 63 135 204 153 177 64 64 129 149 52 25 0 34
0 0 0 0 0 0 0 0 0 0 0 0 0 6 0 0 0 11 15 0 0 0 0 7 13 19 26 43 34 15 1 1 0 0 0 1 43 76 122 161 260 280 92 214 112 68 50 27 71
0 0 0 0 0 0 0 0 0 0 0 0 0 4 2 0 0 0 0 0 0 0 0 6 0 0 0 38 10 0 3 13 0 4 16 5 48 88 160 233 281 275 269 350 157 53 31 31 111
0 0 0 0 0 0 0 0 0 0 0 0 5 24 0 0 0 0 0 0 0 0 0 0 0 0 0 12 0 0 12 74 91 86 64 34 86 144 127 206 195 276 304 169 143 161 138 126 24
0 0 5 0 0 0 0 0 0 0 0 0 67 32 5 0 0 0 0 0 0 0 0 0 0 0 0 0 0 0 54 80 136 119 68 65 46 5 101 264 271 269 160 215 217 158 21 54 21
0 0 0 0 0 0 0 0 0 0 0 4 107 60 8 0 0 0 0 0 0 0 0 0 0 0 0 0 0 0 0 33 85 51 56 19 47 90 160 165 167 174 269 182 177 115 23 0 0
0 0 0 0 0 0 0 0 0 12 46 26 149 55 3 0 0 0 0 0 0 0 0 0 0 0 0 0 0 0 0 30 66 63 24 20 12 62 133 197 224 216 99 12 65 83 37 4 0

GFSSGP_con_sbcape_021.txt.gz
CAPE
12 0 0 0 0 0 0 0 0 0 0 0 0 0 0 0 0 0 0 1 0 0 1 952 1327 1150 853 805 645 526 476 195 29 0 0 4 3 1 0 0 2 0 0 0 0 0 0 0 5
0 0 0 0 0 0 0 0 0 0 0 0 0 0 0 0 0 0 0 0 0 0 76 587 1353 1261 1169 1069 1097 992 513 257 123 86 171 208 214 110 0 0 3 8 9 10 7 1 2 0 0
0 0 0 0 0 0 0 0 0 0 0 0 0 0 0 0 0 0 0 0 0 0 89 377 1511 1492 1508 1354 1372 1245 740 561 534 550 573 380 397 221 59 2 2 14 57 26 17 26 10 4 0
0 0 0 0 0 0 0 0 0 0 0 0 0 0 0 0 0 0 0 0 0 0 28 391 1684 1704 1782 1731 1684 1557 1037 743 726 798 853 476 344 327 425 137 92 103 85 62 26 23 72 38 9
0 0 0 0 0 0 0 0 0 0 0 0 0 0 0 0 0 0 79 3 0 3 100 440 1857 1908 2013 2000 1746 1636 1443 1442 1426 1048 909 619 440 356 124 79 93 131 107 77 49 47 93 144 132
0 0 0 0 0 0 0 0 0 0 0 0 0 0 0 0 0 0 40 17 5 25 105 450 1770 1982 2039 2110 1929 1975 1908 1939 1690 1180 868 477 297 208 149 84 57 52 59 80 129 142 343 340 240
0 0 0 0 0 0 0 0 0 0 0 0 0 0 0 0 0 0 0 0 2 56 256 640 1293 1626 2073 2057 2131 2191 2191 1960 1281 886 492 73 25 22 24 31 18 21 44 84 118 108 251 418 266
0 0 0 0 0 0 0 0 0 0 0 0 0 0 0 0 0 0 0 0 0 137 317 350 460 771 888 1163 1656 1747 1676 1096 821 233 10 0 9 32 40 18 13 19 13 23 40 75 273 495 444
0 0 0 0 0 0 0 0 0 0 0 0 0 0 0 0 0 0 0 0 0 0 0 0 14 168 266 306 459 1165 723 485 223 45 50 89 0 0 8 0 0 9 37 123 113 60 348 409 244
0 0 0 0 0 0 0 0 0 0 0 0 0 0 0 0 0 0 0 0 0 0 0 0 0 2 0 0 0 0 20 8 4 14 0 0 0 0 0 0 1 7 17 125 168 206 273 298 15
0 0 0 0 0 0 0 0 0 0 0 0 0 0 0 0 0 0 0 0 0 0 0 0 0 0 0 0 0 0 0 0 0 0 0 0 0 0 0 0 0 0 0 0 3 19 92 131 0
0 0 0 0 0 0 0 0 0 0 0 0 0 0 0 0 0 0 0 0 0 0 0 0 0 0 0 0 0 0 0 0 0 0 0 0 0 0 0 0 0 0 0 0 0 0 0 36 0
0 0 0 0 0 0 0 0 0 0 0 0 0 0 0 0 0 0 0 0 0 0 0 0 0 0 0 0 0 0 0 0 0 0 0 0 0 0 0 0 0 0 0 0 0 0 0 16 0
0 0 0 0 0 0 0 0 0 0 0 0 0 0 0 0 0 0 0 0 0 0 0 0 0 0 0 0 0 0 0 0 0 0 0 0 0 0 0 0 0 0 0 0 0 0 0 0 0
0 0 0 0 0 0 0 0 0 0 0 0 0 0 0 0 0 0 0 0 0 0 0 0 0 0 0 0 0 0 0 0 0 0 0 0 0 0 0 0 0 0 0 0 0 0 0 0 0
0 0 0 0 0 0 0 0 0 0 0 0 0 0 0 0 0 0 0 0 0 0 0 0 0 0 0 0 0 0 0 0 0 0 0 0 0 0 0 0 0 0 0 0 0 0 0 4 19
0 0 0 0 0 0 0 0 0 0 0 0 0 0 0 0 0 0 0 0 0 0 0 0 0 0 0 0 0 0 0 0 0 0 0 0 0 0 0 0 0 0 0 0 0 0 0 0 102
0 0 0 0 0 0 0 0 0 0 0 0 0 0 0 0 0 0 0 0 0 0 0 0 0 0 0 0 0 0 0 0 0 0 0 0 0 0 0 0 0 0 0 0 0 0 0 79 129
0 0 0 0 0 0 0 0 0 0 0 0 0 0 0 0 0 0 0 0 0 0 0 0 0 0 0 0 0 0 0 0 0 0 0 3 0 0 0 0 0 0 0 0 0 0 3 33 9
0 0 0 0 0 0 0 0 0 0 0 0 0 0 0 0 0 0 0 0 0 0 0 0 0 0 0 0 0 0 0 0 0 0 0 0 9 0 0 0 0 0 0 0 0 0 0 5 0
0 0 0 0 0 0 0 0 0 0 0 0 0 0 0 0 0 0 0 0 0 0 0 0 0 0 18 0 0 0 0 0 0 0 0 0 0 11 0 0 0 0 0 0 0 0 0 4 0
0 0 0 0 0 0 0 0 0 0 0 0 0 0 0 0 0 0 0 0 0 0 0 0 0 0 0 0 0 0 0 0 0 0 0 0 2 24 0 0 0 0 0 0 0 0 0 0 3
0 0 0 0 0 0 0 0 0 0 0 0 0 0 0 0 0 0 0 0 0 0 0 0 0 1 0 0 0 0 0 0 0 0 0 0 0 0 2 0 0 0 0 0 0 0 0 0 0
0 0 0 0 0 0 0 0 0 0 0 0 0 0 0 0 0 0 0 0 0 0 0 0 3 2 0 0 0 0 0 0 0 0 0 0 0 0 0 0 0 0 0 0 0 0 0 0 1
0 0 0 0 0 0 0 0 0 0 0 0 0 0 0 0 0 0 0 0 0 0 0 0 0 0 0 0 0 0 0 0 0 0 0 0 0 0 0 0 0 0 0 0 0 0 0 0 0
0 0 0 0 0 0 0 0 0 0 0 0 0 0 0 0 0 0 0 0 0 0 0 0 0 0 0 0 0 0 0 0 0 0 0 0 0 0 0 0 0 0 0 0 0 0 0 0 0
0 0 0 0 0 0 0 0 0 0 0 0 0 0 0 0 0 0 0 0 0 0 0 0 0 0 0 0 0 0 0 0 16 2 0 2 4 28 0 0 0 0 5 0 0 0 0 0 0
0 0 0 0 0 0 0 0 0 0 0 0 0 0 0 0 0 0 0 0 0 0 0 0 0 0 0 0 0 0 0 0 7 0 2 0 0 2 0 0 0 0 0 0 0 0 0 0 1
0 0 0 0 0 0 0 0 0 0 0 0 0 0 0 0 0 0 0 0 0 0 0 0 0 0 0 0 0 0 0 0 0 0 0 2 0 0 0 0 0 0 1 0 0 0 1 1 1
0 0 0 0 0 0 0 0 0 0 0 0 0 0 0 0 0 0 0 0 0 0 0 0 0 0 0 0 0 0 0 0 0 0 0 0 0 0 0 0 0 0 0 0 0 0 0 0 1

GFSSGP_con_sbcape_027.txt.gz
CAPE
0 0 0 0 0 0 0 0 0 0 0 0 0 0 0 0 0 0 0 0 1 0 6 696 1276 902 704 662 594 365 246 175 28 0 0 0 0 0 0 0 0 0 0 0 0 0 0 0 0
0 0 0 0 0 0 0 0 7 0 0 0 0 0 0 0 0 0 4 0 5 0 89 227 1354 1084 999 986 948 777 597 325 156 28 3 0 0 0 1 1 4 2 1 0 0 0 1 2 3
0 0 0 0 10 23 0 0 0 0 0 0 0 0 0 0 0 0 9 30 0 3 163 541 1511 1302 1202 1167 1159 1060 907 672 247 51 73 83 50 84 225 117 48 3 7 4 1 6 49 28 14
0 0 0 0 0 2 0 0 0 0 0 0 0 0 0 0 0 0 4 70 0 0 182 538 1556 1508 1427 1344 1310 1163 1101 832 550 284 369 247 224 679 777 413 275 162 72 30 8 210 50 9 17
0 0 0 7 0 0 0 0 0 0 0 0 0 0 0 0 0 0 16 142 60 12 109 364 1564 1752 1717 1617 1523 1404 1370 1213 1139 798 578 603 932 737 640 442 320 310 238 112 62 147 336 351 344
0 0 0 0 0 0 0 0 0 0 0 0 0 0 0 0 0 0 38 248 195 166 178 451 1308 1858 1797 1777 1737 1691 1668 1574 1527 1430 1297 1283 1213 921 696 463 335 271 275 227 146 206 358 304 379
0 0 0 0 0 0 0 0 0 0 0 0 0 0 0 0 0 0 50 250 195 297 284 596 823 1568 1822 1835 1792 1828 1892 1824 1838 1794 1680 1753 1448 1159 479 192 96 55 60 49 63 123 220 259 146
0 0 0 0 0 0 0 0 0 0 0 0 0 0 0 0 0 0 117 144 136 263 392 548 938 1111 1149 1225 2123 2120 2126 2057 2012 1954 1871 1883 1009 522 165 252 46 25 19 23 25 42 274 237 254
0 0 0 0 0 0 0 0 0 0 0 0 0 0 0 0 0 0 68 100 114 202 339 425 511 963 1136 1051 1305 2182 1860 1881 1973 1662 1459 1132 325 135 114 127 105 31 5 2 6 22 88 213 245
0 0 0 0 0 0 0 0 0 0 0 0 0 0 0 0 0 0 12 65 132 212 291 322 525 883 1095 1047 1353 1384 1145 906 1071 860 661 587 346 289 98 78 53 19 0 4 11 10 125 121 263
0 0 0 0 0 0 0 0 0 0 0 0 0 0 15 6 0 0 0 18 37 134 248 323 577 890 1061 959 1047 903 779 770 686 753 790 472 304 347 323 299 102 5 0 13 11 11 15 4 198
0 0 0 0 0 0 0 0 0 0 0 0 0 0 0 0 0 0 0 0 12 46 176 222 479 728 991 696 507 259 180 234 322 365 501 513 463 378 294 91 19 25 0 12 50 59 71 155 294
0 0 0 0 0 0 0 0 0 0 0 0 0 0 0 0 0 0 0 0 0 2 18 71 348 585 546 344 206 158 233 200 197 245 225 243 214 416 340 135 30 29 31 29 43 40 85 126 334
0 0 0 0 0 0 0 0 0 0 0 0 0 0 0 0 0 0 0 0 0 0 0 10 211 344 228 211 271 290 304 240 218 145 163 192 188 210 134 68 78 90 110 78 67 59 83 145 214
0 0 0 0 0 0 0 0 0 0 0 0 0 0 0 0 0 0 0 0 0 0 0 0 88 116 180 208 312 329 265 229 214 261 313 209 279 298 256 205 221 135 119 135 132 107 98 180 308
0 0 0 0 0 0 0 0 0 0 0 0 0 0 0 0 0 0 0 0 0 0 0 0 0 58 182 285 338 261 239 259 239 274 395 360 422 390 409 329 244 141 152 145 133 146 94 203 314
0 0 0 0 0 0 0 0 0 0 0 0 0 0 0 0 0 0 0 0 0 0 0 1 21 53 220 368 245 269 267 306 340 378 408 463 452 336 430 430 122 213 147 170 214 188 144 310 452
0 0 0 0 0 0 0 0 0 0 0 0 0 0 0 0 0 0 0 0 0 0 5 60 110 200 308 265 199 187 215 323 332 433 473 442 400 346 456 210 240 184 201 216 236 315 179 394 612
0 0 0 0 0 0 0 0 0 0 0 0 0 0 0 0 0 0 0 0 0 0 10 100 171 265 208 155 232 253 453 546 497 450 380 337 418 446 346 220 136 131 168 333 359 272 298 515 587
0 0 0 0 0 0 0 0 0 0 0 0 0 0 0 0 0 0 0 0 0 0 8 59 199 192 172 323 300 453 573 475 364 329 360 316 430 503 373 175 23 183 344 387 288 334 318 477 665
0 0 0 0 0 0 0 0 0 0 0 0 0 0 0 0 0 0 0 0 0 0 1 108 164 160 155 352 376 385 198 172 299 268 193 200 105 400 348 96 75 257 457 424 326 347 576 671 657
0 0 0 0 0 0 0 0 0 0 0 0 0 0 0 0 0 0 0 0 0 0 6 73 132 141 338 378 437 477 171 69 135 120 81 173 85 226 394 402 398 463 449 431 283 436 603 734 784
0 0 0 0 0 0 0 0 0 0 0 0 0 0 0 0 0 0 0 0 0 0 3 45 92 364 332 367 343 184 120 53 25 0 107 254 333 243 251 439 464 566 486 394 313 446 566 664 829
0 0 0 0 0 0 0 0 0 0 0 0 0 0 0 0 0 0 0 0 0 0 1 52 227 369 316 348 209 56 18 29 89 205 405 275 293 330 452 270 426 490 421 358 312 357 222 218 764
0 0 0 0 0 0 0 0 0 0 0 0 0 0 0 0 0 0 0 0 0 0 22 89 285 339 298 325 161 23 23 27 148 285 298 325 343 525 560 525 478 390 527 465 432 484 534 580 788
0 0 0 0 0 0 0 0 0 0 0 0 0 0 0 0 0 0 0 0 0 8 33 69 274 384 303 287 181 108 83 112 154 286 327 349 404 530 560 506 506 489 401 341 473 499 512 532 712
0 0 0 0 0 0 0 0 0 0 0 0 0 0 0 0 0 0 0 0 0 10 67 194 230 343 370 268 188 172 145 271 421 299 342 448 565 527 521 587 498 504 414 362 444 374 519 598 629
0 0 0 0 0 0 0 0 0 0 0 0 0 0 0 0 0 0 0 0 0 4 98 140 217 258 309 212 136 159 192 216 94 239 157 457 581 617 490 596 617 547 384 318 417 398 487 585 583
0 0 0 0 0 0 0 0 0 0 0 0 8 0 0 0 0 0 0 0 0 1 4 73 105 69 156 141 54 145 220 98 42 243 165 429 629 561 499 470 539 512 372 344 407 421 296 304 96
0 0 0 0 0 0 0 0 0 0 0 0 0 0 0 0 0 0 0 0 0 0 0 50 64 23 82 68 7 179 171 42 94 253 248 455 553 413 428 338 416 73 41 92 161 46 66 53 58

GFSSGP_con_sbcape_030.txt.gz
CAPE
0 0 0 0 0 0 0 28 24 0 0 0 0 0 0 0 0 0 0 113 106 0 104 593 1085 918 696 652 497 398 277 162 0 0 0 0 0 0 0 0 0 0 0 0 0 0 0 0 0
0 0 0 0 0 11 14 113 21 0 0 0 0 0 0 0 0 0 3 94 84 2 137 215 1220 1003 926 910 825 686 576 318 88 3 0 0 0 0 0 0 0 0 0 0 0 0 4 4 3
0 0 0 29 131 119 104 61 29 0 0 0 0 0 0 0 0 0 42 142 119 35 134 302 1384 1148 1130 1147 1139 990 817 593 198 106 58 29 13 8 94 57 80 44 3 1 0 2 7 105 79
0 0 0 0 0 9 119 37 0 0 0 0 0 0 0 0 0 0 53 156 95 43 128 433 1511 1373 1338 1327 1390 1287 1111 785 537 261 227 166 126 353 633 255 344 303 105 33 2 0 29 251 3
0 0 0 0 0 0 33 19 0 0 0 0 0 0 0 0 0 0 66 150 71 100 116 409 1660 1641 1649 1572 1555 1507 1427 1231 1112 695 479 474 694 949 762 716 579 448 346 320 217 102 266 238 215
0 0 0 0 0 0 0 0 0 0 0 0 0 0 0 0 0 0 16 215 88 90 194 496 1611 1825 1773 1747 1688 1601 1490 1461 1376 1333 1264 1255 1324 1378 957 840 606 455 367 356 337 310 582 419 369
0 0 0 0 0 0 0 0 0 0 0 0 0 0 0 0 0 0 0 109 230 147 216 592 1111 1633 1917 1836 1768 1730 1639 1662 1659 1683 1652 1698 1592 1423 979 785 436 220 153 178 204 253 369 348 239
0 0 0 0 0 0 0 0 0 0 0 0 0 1 14 41 4 0 12 21 237 229 264 347 956 989 1120 1206 1957 1941 1954 1971 1941 1979 1980 1968 1623 1310 694 638 262 105 80 63 83 123 151 389 452
0 0 0 0 0 1 0 0 0 0 0 0 0 0 0 3 5 29 54 68 87 137 310 300 549 769 1018 921 1138 1993 1863 1912 1996 1706 1686 1706 763 406 438 459 176 204 60 35 7 7 42 123 243
0 0 0 0 0 0 0 0 0 0 0 0 0 0 1 12 50 75 88 72 99 162 204 313 557 856 975 670 923 1636 1080 1139 977 932 1086 1065 672 529 393 344 178 181 110 45 0 8 20 116 285
0 0 0 0 0 0 0 0 0 0 0 0 0 1 18 10 21 44 100 109 50 109 191 242 747 980 1082 879 1005 1335 1185 985 984 1137 1076 810 614 503 544 529 376 532 315 194 76 72 63 28 70
0 0 0 0 0 0 0 0 0 0 0 0 0 0 0 0 8 2 4 87 75 44 160 301 512 1125 1404 989 1030 1067 842 738 688 563 776 968 834 749 700 582 397 672 220 185 127 28 62 70 78
0 0 0 0 0 6 2 1 0 0 0 0 0 0 0 0 0 0 0 0 111 53 135 320 620 1184 1516 1511 1099 905 563 362 403 396 557 785 623 691 698 699 542 599 164 49 124 50 50 103 107
0 0 0 0 0 1 0 0 0 0 0 0 0 0 0 0 0 0 0 0 86 120 116 279 644 1223 1473 1743 1206 786 634 412 502 342 526 756 767 765 750 677 618 480 343 276 412 82 90 100 123
0 0 0 0 0 0 0 0 0 0 0 0 0 0 0 0 0 0 0 0 69 163 175 314 610 1128 1498 1306 969 671 490 500 356 437 778 831 921 862 907 793 648 689 595 652 660 172 168 177 168
0 0 0 0 0 0 0 0 0 0 0 0 0 0 0 0 0 0 0 0 62 177 175 249 277 882 1247 1120 781 519 467 477 407 593 764 945 1001 1097 1031 868 556 861 629 731 760 310 167 135 328
0 0 0 0 1 0 0 0 0 0 0 0 0 0 0 0 0 0 0 1 61 121 164 162 299 667 919 763 643 636 637 533 494 711 807 834 1010 997 986 914 926 802 641 730 513 330 222 564 417
0 0 0 3 22 0 0 0 0 0 0 0 0 0 0 0 0 0 0 0 2 52 103 154 260 547 701 677 652 537 455 434 626 794 791 872 1091 909 778 865 843 987 610 601 569 280 472 397 782
0 0 0 0 0 0 0 0 0 0 0 0 0 0 0 0 0 0 0 0 0 13 89 196 338 635 600 559 446 422 313 478 728 791 888 842 935 712 1006 1102 820 593 517 540 285 805 525 565 854
0 0 0 0 1 0 0 0 4 2 0 0 0 0 0 0 0 0 0 0 12 63 167 311 459 697 584 481 426 300 469 599 620 663 776 828 841 605 774 799 708 434 231 363 475 571 924 686 958
0 0 0 0 0 1 0 0 0 0 0 0 0 0 0 0 0 9 0 24 45 113 265 348 574 674 558 521 571 850 765 601 545 664 709 781 713 651 739 500 543 144 352 596 805 757 531 891 1031
0 0 0 0 0 0 0 0 0 0 0 0 0 0 0 0 0 17 22 54 117 180 253 446 561 665 606 591 578 558 320 265 340 356 443 556 592 553 560 602 434 484 636 754 743 734 735 926 1068
0 0 0 0 0 0 0 0 0 0 0 0 0 0 0 0 0 22 51 108 101 164 301 460 573 447 627 689 620 618 369 361 366 296 610 898 761 492 479 602 713 643 1042 829 649 506 788 858 1129
0 0 0 0 0 0 0 7 1 0 10 0 0 0 0 28 20 54 67 73 140 182 303 426 411 636 701 834 768 529 593 454 486 542 834 878 813 839 675 590 686 802 837 648 580 664 773 1016 1037
0 0 0 0 1 0 0 9 0 0 0 0 0 0 25 43 100 119 95 121 157 197 268 298 454 604 738 760 626 538 632 650 718 677 612 728 871 926 717 691 687 837 768 634 594 711 759 594 970
0 0 0 0 0 2 3 0 0 0 0 0 0 0 13 56 168 185 136 186 167 182 233 224 419 450 573 572 570 596 709 582 615 600 641 548 959 735 757 772 745 732 723 762 854 1064 1074 1078 1076
0 0 0 0 2 0 7 0 0 0 0 0 0 0 4 101 220 197 191 202 169 231 284 353 342 303 411 485 549 697 691 664 533 695 748 902 826 632 682 724 685 693 666 711 877 1027 965 1044 1016
0 0 0 0 2 13 0 0 0 0 0 0 0 0 0 190 191 190 217 194 195 266 361 337 164 285 420 496 415 554 591 497 403 632 579 735 807 525 640 675 711 690 678 680 822 918 904 915 890
0 0 0 0 0 6 1 0 0 0 0 0 6 17 212 212 189 200 179 176 207 268 306 156 189 330 445 405 354 463 551 400 373 542 446 755 824 663 483 571 604 619 693 724 768 707 714 707 811
0 0 0 0 0 0 0 0 0 0 13 0 10 240 225 180 180 155 133 148 216 274 153 100 153 147 282 225 143 353 504 310 451 503 519 591 681 598 391 452 512 429 516 660 633 436 410 522 550

GFSSGP_con_sbcape_033.txt.gz
CAPE
0 0 0 0 0 0 0 0 52 26 8 0 0 0 4 0 0 7 19 43 0 0 624 274 825 746 648 530 410 326 216 98 0 0 0 0 0 0 0 0 0 0 0 0 0 0 0 0 0
0 0 0 0 0 0 5 18 54 74 33 0 0 0 5 2 0 0 0 45 0 12 747 105 960 868 868 825 701 570 451 183 26 0 0 0 0 0 0 0 0 0 0 0 0 0 0 5 7
0 0 0 0 3 29 55 90 65 32 0 0 0 0 0 0 0 0 59 83 13 30 566 282 1107 1009 1047 1051 948 836 733 492 133 63 51 35 28 30 27 29 45 79 58 15 2 5 6 15 80
0 0 0 28 70 88 25 109 109 15 45 0 0 0 0 0 0 0 20 60 31 20 205 1139 1191 1196 1217 1339 1259 1091 1034 754 452 206 167 139 113 217 233 86 114 180 264 153 92 83 10 43 252
0 0 0 0 0 0 22 8 62 24 29 14 2 0 8 1 0 0 16 50 35 41 77 797 1424 1411 1458 1541 1499 1436 1268 1115 973 663 403 279 388 591 534 468 558 579 447 385 366 336 342 412 335
0 0 0 0 1 8 30 9 5 9 7 12 0 0 0 0 0 0 0 61 40 31 70 254 1591 1526 1529 1599 1636 1568 1497 1420 1325 1204 1001 1023 1046 1038 956 929 926 706 463 468 319 345 322 308 232
0 0 0 0 2 3 24 12 5 16 32 29 7 0 2 53 9 3 0 33 96 34 104 127 1659 1500 1642 1704 1641 1624 1599 1577 1537 1484 1436 1510 1303 1375 1194 1206 885 544 364 198 156 192 218 255 226
0 0 0 1 0 0 5 2 2 13 29 31 8 0 19 88 18 32 28 37 62 135 101 161 565 1507 1195 847 1835 1852 1788 1737 1765 1663 1598 1690 1469 1357 1372 1267 784 426 182 149 96 72 114 166 448
0 0 0 0 0 0 5 11 20 17 0 0 0 0 3 6 1 13 45 52 74 89 150 206 176 574 930 657 1052 1859 1602 1606 1731 1439 1503 1656 648 537 960 1048 981 506 321 172 111 64 34 46 105
0 19 0 0 2 2 27 16 15 15 14 0 0 2 16 24 26 15 6 22 47 135 147 193 296 661 777 540 1169 1615 925 850 840 835 792 1313 1357 780 575 793 360 413 420 297 175 107 39 48 0
3 0 13 21 20 21 17 44 29 16 32 23 13 1 18 11 6 0 0 0 12 41 137 170 1457 1637 1169 737 726 1426 1302 993 1249 1266 1921 1811 923 546 635 777 828 638 678 614 438 226 304 135 16
0 0 12 18 52 39 35 31 53 29 25 16 0 0 0 0 0 0 0 0 4 1 184 121 555 1938 2205 1115 709 1023 1259 1293 1019 1066 1665 1523 927 1107 1006 802 771 1392 655 809 993 364 581 546 100
0 0 0 1 11 29 40 13 21 13 2 4 0 0 0 0 0 0 0 0 0 0 2 67 881 2239 2507 2873 1214 1350 1559 910 988 763 759 894 780 1267 932 995 811 879 802 516 340 558 535 465 256
0 2 1 0 3 10 24 0 0 3 0 0 0 0 0 0 0 0 0 0 0 18 34 90 1065 2549 2064 2384 2969 2241 2185 970 606 533 559 879 993 1389 941 982 1153 992 1115 654 1042 823 329 196 110
1 26 31 15 17 20 0 0 0 0 0 0 0 0 0 0 0 0 0 0 0 43 149 346 1674 2389 2725 2565 2626 2082 1126 788 533 602 630 701 1143 1236 1158 851 968 856 1617 942 1055 641 828 415 150
0 15 8 0 2 5 35 0 0 0 5 0 0 0 0 0 0 0 0 0 135 523 498 494 319 1163 2211 2675 2328 1540 741 746 491 511 575 1020 1243 1247 1153 1157 950 832 1196 1128 962 734 594 462 716
0 0 0 0 12 28 55 0 1 0 0 0 0 0 0 0 0 0 0 0 134 478 362 565 970 882 1741 2482 1742 1503 1679 767 581 584 618 851 1121 1085 1537 1402 1060 1271 1230 917 1046 757 1164 652 630
0 0 0 0 0 22 31 8 18 1 0 0 22 2 0 0 0 0 0 0 76 152 444 775 778 1567 2190 1739 1461 744 697 725 510 582 720 892 1048 1162 1198 1147 1171 1355 1205 986 876 844 698 503 541
0 0 0 0 1 16 0 18 68 4 0 0 2 3 0 0 0 0 0 129 59 241 573 673 683 1892 1638 1016 714 685 590 709 515 689 780 1003 979 1123 1312 1221 1224 1261 1092 786 971 990 690 975 828
0 0 0 0 1 26 34 12 31 7 0 0 1 2 0 0 0 0 182 201 158 411 522 586 662 1341 1344 955 1178 645 632 439 720 695 911 962 908 1352 1084 1094 1201 1027 1115 914 550 965 775 922 1055
0 0 0 0 0 5 20 21 0 0 2 0 0 0 2 0 0 0 293 352 394 461 599 638 850 1036 1426 1427 1023 749 825 799 656 577 794 976 890 899 1028 977 985 1026 1027 743 1042 999 586 916 864
0 0 0 0 0 4 12 6 0 0 0 0 0 17 10 0 0 0 535 515 539 562 618 797 975 970 795 931 1120 1243 577 387 532 567 333 812 639 720 677 906 829 917 695 993 738 1139 861 939 1015
0 0 0 0 0 0 0 0 0 0 0 0 10 18 2 0 0 60 463 565 568 556 647 896 949 808 898 794 827 765 563 219 332 306 632 981 1038 985 694 705 656 813 1308 759 938 795 1059 949 1158
0 0 0 5 0 0 0 1 0 0 0 0 6 31 5 0 1 197 463 580 534 563 731 813 859 820 827 664 750 838 537 492 485 618 816 1149 1457 1308 870 586 736 804 890 902 727 680 896 1126 1320
0 0 0 1 0 0 0 4 0 0 0 0 0 2 1 0 237 472 579 504 575 630 668 715 709 875 790 777 622 576 649 671 677 803 1139 1052 1311 1229 1148 897 807 1038 964 706 813 1005 846 991 1420
0 0 0 0 0 0 0 0 0 0 0 0 0 0 0 207 394 534 539 590 524 609 598 546 792 751 719 593 521 527 559 548 847 814 1176 1112 1032 1031 738 733 714 842 652 539 819 1445 1173 1139 1344
0 1 0 0 0 0 2 44 10 0 0 0 0 0 0 320 562 607 596 565 572 579 575 713 676 637 537 447 486 465 505 692 761 804 1085 1032 906 776 610 621 769 679 703 794 1064 1265 979 908 838
0 0 0 0 0 1 31 52 73 0 0 0 0 0 0 365 581 592 606 584 546 563 602 675 572 521 384 376 390 508 1133 622 446 914 875 957 805 408 526 677 762 593 640 800 1021 1101 950 999 436
0 4 0 0 0 3 39 74 28 0 0 1 0 0 0 494 574 598 581 562 555 575 579 561 323 315 356 352 310 580 919 488 512 692 637 789 735 378 453 584 636 573 596 686 1025 896 722 709 875
0 1 0 0 0 8 39 59 0 0 0 21 70 45 78 586 571 599 538 536 576 577 544 252 287 272 290 244 208 315 852 239 609 462 740 720 690 390 253 763 261 291 505 709 693 615 630 623 555

GFSSGP_con_sbcape_036.txt.gz
CAPE
1 0 0 0 0 0 0 0 0 91 13 0 0 0 0 0 0 0 18 20 189 408 92 166 514 416 391 273 230 154 124 80 25 0 0 0 0 0 0 0 0 0 0 0 0 0 0 0 0
0 0 0 0 0 0 0 2 23 0 0 0 0 0 0 2 0 0 4 10 143 684 223 105 657 644 708 574 506 389 316 182 112 58 8 0 0 0 0 0 0 0 0 0 0 0 0 4 1
0 0 0 0 0 0 0 11 55 2 1 0 0 0 0 0 0 2 117 55 111 963 437 173 809 757 846 771 720 606 521 365 233 91 81 45 23 0 0 0 0 0 19 44 27 28 13 3 13
0 0 0 0 3 40 52 67 62 4 5 0 0 0 0 0 0 0 0 8 0 244 559 797 788 858 969 1017 945 794 706 596 444 246 291 221 110 194 242 96 48 54 67 128 176 143 134 116 290
0 0 0 0 0 0 0 14 37 26 1 0 4 0 0 0 0 0 16 19 14 0 372 1128 911 1021 1145 1194 1135 989 894 760 687 626 540 465 439 456 492 348 260 362 444 321 298 330 343 341 444
0 0 0 0 0 0 0 2 2 10 0 0 4 2 5 5 4 0 0 68 11 49 169 1549 1150 1060 1148 1334 1333 1106 1029 940 910 901 867 765 766 840 795 773 781 861 598 396 437 283 534 439 375
0 0 0 0 0 0 1 10 1 2 1 18 8 0 0 3 35 59 24 86 121 93 105 1941 1389 1212 1386 1376 1374 1309 1211 1187 1222 1202 1151 1098 1190 1192 1146 1240 1096 1098 799 588 235 169 268 488 601
0 0 0 0 0 0 0 0 0 0 0 3 0 2 0 62 33 37 8 47 92 124 71 1798 1764 1226 1093 1158 1622 1624 1511 1549 1523 1507 1482 1452 1404 1291 1366 1341 1526 1157 904 406 198 177 144 399 536
0 0 0 0 0 0 0 0 0 0 0 1 0 0 0 0 6 0 13 4 5 76 203 226 1798 1891 1332 769 1176 1821 1595 1670 1678 1648 1604 1524 863 554 916 1031 1268 1197 967 537 405 217 226 205 168
0 0 0 0 0 0 3 0 0 0 1 0 5 0 1 5 1 5 17 4 0 0 45 238 265 1268 1562 852 807 1430 1328 1242 1211 867 952 1107 831 972 963 588 1754 1130 1116 660 508 398 304 125 1
0 0 0 0 0 1 0 0 4 13 20 12 33 45 9 0 29 7 0 0 0 1 6 178 493 955 1193 720 817 1633 1299 1036 873 863 1058 1358 1385 1507 1072 693 780 775 842 478 641 420 242 165 87
0 0 0 0 0 12 1 0 1 1 16 24 49 37 17 0 6 1 0 0 0 0 77 85 755 1586 1073 828 979 1737 1617 1220 998 1053 1617 1619 1896 1592 1225 977 1256 716 743 850 926 442 421 324 585
0 0 0 0 2 0 11 0 1 5 6 4 0 7 1 13 9 0 0 3 4 12 57 208 1197 1406 1949 2010 1086 1313 1613 1490 1324 1578 1738 1743 1462 1221 1579 1502 1374 1239 1088 962 654 647 582 419 236
0 0 0 0 0 0 0 0 0 0 4 2 0 0 2 34 14 0 29 119 225 102 277 598 1813 1893 2052 1393 2499 2120 2264 1948 1658 1511 1454 1513 1361 1484 1467 1814 1463 1210 1405 1137 909 709 533 478 221
0 0 0 0 0 2 27 0 8 4 4 0 0 5 17 28 3 1 29 290 187 293 853 1473 2091 2547 2233 2437 2140 3555 2440 2180 1448 1192 1721 1566 1474 1648 1882 1650 1499 1144 1365 1099 976 830 618 520 335
0 0 0 0 0 0 34 0 0 0 1 0 0 6 36 41 17 26 6 141 210 795 1150 1883 360 2679 2635 2747 2529 2200 2256 1797 1783 1290 1475 1391 1824 1702 1866 1515 1250 1279 1376 1220 829 668 577 539 468
0 0 0 0 0 0 20 1 0 4 4 1 5 0 11 0 29 43 234 112 401 1355 1841 1773 1742 2362 2570 3011 2698 2473 2503 1270 1191 1555 1374 1644 1535 1611 1528 1239 1408 1416 1161 936 923 661 717 558 431
0 0 0 0 0 0 12 9 0 20 38 38 44 4 0 0 16 2 260 184 795 760 972 1876 2412 2598 2539 2558 2694 2125 1689 1539 1642 1416 1332 1716 1784 1632 1363 1317 1526 1310 1101 988 604 704 660 468 60
0 0 0 0 0 1 12 1 0 4 48 5 3 3 0 0 17 84 188 635 852 842 1543 2511 2370 2629 2314 2308 1863 1487 1145 1350 1150 1319 1488 1495 1539 1357 1532 1370 1363 939 967 665 622 625 606 366 451
0 0 0 0 0 0 21 9 1 26 4 8 25 3 0 0 107 182 435 1106 1156 1434 1835 1850 1801 2691 2209 2045 1630 1248 1174 953 1054 1183 1693 1554 1438 1540 1338 1436 1191 879 972 623 604 669 404 389 683
0 0 0 0 0 0 0 1 1 0 6 23 5 0 10 16 0 0 461 1133 1066 1230 1406 1423 1848 2192 1960 1762 1662 2413 1868 1920 1608 1330 1269 1519 1123 1164 1504 1245 1002 915 903 645 473 693 529 603 598
0 0 0 0 0 0 0 4 0 0 0 5 5 9 13 0 6 86 540 1152 1164 995 1089 1363 1806 1788 1758 2262 1802 1910 1466 1139 1292 1542 1237 1478 1298 1148 1230 1105 778 854 782 778 752 786 544 673 305
0 0 0 0 0 2 0 1 0 0 0 0 0 0 0 0 83 176 985 1154 955 1065 1135 1388 1645 1529 1901 1858 1668 1922 1806 1675 1499 1220 1332 1437 1397 866 889 907 836 952 927 846 780 966 529 600 581
0 0 0 0 0 19 0 0 0 0 0 0 0 0 0 55 69 172 1050 1005 981 991 1162 1463 1439 1672 1569 1650 2256 1957 1863 1554 1517 1363 1328 1277 1525 1442 985 864 868 1001 1027 803 1008 840 813 740 845
0 3 0 0 0 0 0 0 0 0 0 0 0 0 0 86 106 815 1018 907 943 1056 1280 1344 1329 1426 1415 1544 1567 1368 1509 1083 1098 1259 1370 1256 1314 1184 905 929 906 1080 710 858 949 795 771 882 946
0 0 0 0 0 0 0 0 0 0 0 0 1 0 20 56 807 947 965 938 891 1116 1162 1095 1215 1275 1266 1265 1268 1422 1479 1194 1396 1516 1260 1140 1169 1164 956 1077 887 780 879 703 772 975 628 661 833
0 0 0 1 0 0 0 0 0 0 0 0 0 7 48 642 935 954 901 926 930 1077 1121 1078 1207 1175 1161 1175 1377 1295 1366 1294 1327 1496 1429 917 1401 1123 1029 834 700 769 672 771 915 538 577 562 663
0 0 0 5 0 2 0 0 2 34 53 22 15 11 95 839 855 825 885 958 1023 1048 1157 1296 1236 1153 1031 981 1008 938 1356 496 815 984 1214 1053 1034 583 789 732 841 732 651 753 606 612 716 514 321
1 0 1 0 0 0 0 0 83 219 27 0 0 0 96 810 826 877 782 1010 990 933 975 1221 1073 870 778 911 1113 942 1190 686 1017 1126 1081 1147 1030 695 827 863 865 639 613 746 761 521 614 419 428
19 4 5 1 0 2 0 0 49 1 0 0 9 0 392 766 772 777 826 867 864 907 962 1045 830 501 572 660 735 854 619 889 982 1115 1021 1169 1049 654 545 406 264 664 723 661 615 786 409 484 243

GFSSGP_con_sbcape_042.txt.gz
CAPE
0 0 0 0 0 0 0 0 0 0 0 0 0 0 0 0 0 0 0 0 0 0 138 422 669 555 463 382 279 150 87 77 26 0 0 0 0 0 0 0 0 0 0 0 0 0 0 0 0
0 0 0 0 0 0 0 0 0 0 0 0 0 0 0 0 0 0 50 42 0 0 3 73 735 656 639 519 399 228 136 102 61 20 2 0 0 0 0 0 0 0 0 0 0 0 0 0 0
0 0 0 0 0 0 0 0 4 1 1 0 0 0 0 0 0 0 0 21 0 0 0 12 792 716 726 656 533 329 223 186 97 33 28 11 0 0 0 0 0 0 0 0 0 0 0 0 0
0 0 0 0 0 0 0 0 0 4 0 0 0 0 0 0 0 0 111 0 0 0 0 163 798 786 824 749 599 400 340 288 200 117 114 95 30 103 141 23 33 24 17 58 115 137 123 113 103
0 0 0 0 0 0 0 0 0 1 0 0 0 0 0 0 0 242 163 2 0 0 0 78 903 933 970 849 689 570 524 444 440 368 352 246 264 228 141 125 138 130 149 179 238 227 304 342 415
0 0 0 0 0 0 0 0 0 2 0 0 0 0 0 0 37 301 242 85 0 0 0 0 794 873 938 975 880 695 644 568 582 576 534 510 555 552 355 263 205 227 335 435 463 406 656 548 370
0 0 0 0 0 0 0 0 0 0 5 0 0 0 0 0 0 86 238 132 53 0 0 0 92 586 1243 1192 1066 950 749 663 708 696 709 771 832 876 849 693 494 474 628 751 675 805 701 611 488
0 0 0 0 0 0 0 0 0 0 0 0 0 0 0 0 0 0 0 11 126 62 0 12 20 169 382 588 1277 1114 889 838 794 875 932 964 1088 1065 1027 988 1070 842 961 1039 1114 1002 838 704 738
0 0 0 0 0 0 0 0 0 0 0 0 0 0 0 0 0 0 0 0 0 51 62 153 108 47 171 283 703 1194 1132 1073 993 948 1094 908 674 649 717 969 1019 1107 1333 1341 1467 1257 947 781 480
0 0 0 0 0 0 0 0 0 0 0 0 0 0 0 0 0 0 0 0 0 21 226 219 182 120 104 155 293 626 562 526 554 523 552 683 494 422 725 874 1291 1262 1609 1756 1609 1344 942 627 121
0 0 0 0 0 0 0 0 0 0 0 0 0 0 0 0 0 0 0 0 0 0 117 331 255 193 110 85 224 556 498 407 516 510 449 593 485 391 507 354 529 904 1425 1107 1241 946 754 322 59
0 0 0 0 0 0 0 0 0 0 0 0 0 0 0 0 0 0 0 0 0 0 12 464 356 280 211 101 154 332 428 438 517 566 480 491 402 235 183 270 255 447 752 833 475 421 312 196 26
0 0 0 0 0 0 0 0 0 0 0 0 0 0 0 0 0 0 0 0 0 0 0 223 381 324 290 142 204 278 377 387 477 521 390 401 371 188 234 226 151 229 284 303 221 128 92 27 0
0 0 0 0 0 0 0 0 0 0 0 0 0 0 0 0 0 0 0 0 0 0 0 0 351 418 371 282 205 371 380 318 309 366 348 338 346 374 348 267 54 119 82 115 83 64 46 44 0
0 0 0 0 0 0 0 0 0 0 0 0 0 0 0 0 0 0 0 0 0 0 0 0 0 341 502 414 190 414 451 458 388 330 329 369 422 446 333 260 271 168 69 75 149 4 0 1 1
0 0 0 0 0 0 0 0 0 0 0 0 0 0 0 0 0 0 0 0 0 0 0 0 25 123 367 354 164 496 561 564 467 386 449 651 626 432 352 277 248 139 69 79 9 0 0 1 0
0 0 0 0 0 0 0 0 0 0 0 0 0 0 0 0 0 0 0 0 0 0 0 0 247 326 233 194 376 501 469 535 217 301 623 694 560 344 316 242 182 95 46 36 0 0 0 0 0
0 0 0 0 0 0 0 0 0 0 0 0 0 0 0 0 0 0 0 0 0 0 0 0 417 483 579 538 545 418 198 70 9 151 346 373 359 299 205 285 236 69 48 24 0 16 0 3 5
0 0 0 0 0 0 0 0 0 0 0 0 0 0 0 0 0 0 0 0 0 24 50 96 823 765 962 816 684 263 182 22 14 0 129 311 180 236 201 184 147 59 103 49 0 6 15 17 6
0 0 0 0 0 0 0 0 0 0 0 0 0 0 0 0 0 0 0 0 24 128 375 672 907 1001 1021 787 491 286 134 42 50 22 61 174 242 347 234 243 145 105 83 8 7 6 19 17 1
0 0 0 0 0 0 0 0 0 0 0 0 0 0 0 0 0 0 0 9 39 342 455 744 843 863 890 800 359 178 86 97 127 94 29 98 255 235 215 76 44 80 75 98 6 13 4 0 0
0 0 0 0 0 0 0 0 0 0 0 0 0 0 0 0 0 0 0 0 137 254 283 831 870 952 757 479 462 413 247 209 80 72 49 234 222 226 213 89 80 142 58 73 2 0 0 0 0
0 0 0 0 0 0 0 0 0 0 0 0 0 0 0 0 0 0 0 41 116 212 350 720 658 704 456 404 286 158 96 16 0 57 164 108 60 130 253 227 81 68 23 15 0 12 2 0 0
0 0 0 0 0 0 0 0 0 0 0 0 0 0 0 0 0 0 15 158 190 363 616 578 453 479 319 237 113 54 120 5 10 17 26 28 17 13 60 195 2 9 12 0 0 7 0 0 0
0 0 0 0 0 0 0 0 0 0 0 0 0 0 0 0 0 127 193 209 337 558 519 405 417 316 273 199 73 35 0 0 21 4 0 69 2 2 35 9 0 0 0 4 0 0 0 0 0
0 0 0 0 0 0 0 0 0 0 0 0 0 0 0 0 16 158 194 265 445 529 424 446 345 206 238 87 15 0 0 0 6 0 0 0 0 0 0 0 0 0 0 0 0 0 0 0 1
0 0 0 0 0 0 0 0 0 0 0 0 0 0 0 0 127 118 125 316 495 495 353 352 193 214 35 13 0 0 30 0 0 1 13 0 0 0 0 0 0 0 0 0 0 0 0 11 1
0 0 0 0 0 0 0 0 0 0 0 0 0 0 0 134 171 121 195 385 459 335 316 216 187 206 24 8 2 8 0 21 1 40 26 0 0 0 0 0 0 0 0 0 0 0 0 4 0
0 0 0 0 0 0 0 0 0 0 0 0 0 0 86 183 145 130 304 366 326 239 345 204 193 164 45 10 0 0 0 1 0 2 0 0 0 0 0 0 0 0 0 0 0 0 0 0 4
0 0 0 0 0 0 0 0 0 0 0 0 0 24 178 221 166 245 315 326 248 308 275 199 166 125 33 0 4 1 0 0 2 17 0 0 0 0 0 0 0 0 0 0 0 10 0 2 43

GFSSGP_con_sbcape_045.txt.gz
CAPE
0 0 0 0 0 0 0 0 0 0 0 0 0 0 0 0 0 0 0 0 0 0 209 736 875 596 368 358 229 116 52 29 5 0 0 0 0 0 0 0 0 0 0 0 0 0 0 0 0
0 0 0 0 0 0 0 0 0 0 0 0 0 0 0 0 0 0 0 0 0 0 198 263 831 620 607 513 391 271 116 79 61 29 4 0 0 0 0 0 0 0 0 0 0 0 0 0 0
0 0 0 0 0 0 0 0 0 0 0 0 0 0 0 0 0 0 0 0 0 0 66 92 863 734 712 660 551 382 215 185 57 34 47 36 7 12 0 0 0 0 0 0 0 0 0 3 2
0 0 0 0 0 0 0 0 0 0 0 0 0 0 0 0 0 0 13 0 0 0 0 85 886 921 846 813 674 478 347 248 158 92 80 83 33 83 95 13 0 0 1 59 104 129 113 111 100
0 0 0 0 0 0 0 0 0 0 0 0 0 0 0 0 0 52 5 0 0 0 0 0 938 964 1032 959 767 598 501 417 350 278 154 131 165 153 110 74 77 69 76 140 243 288 345 445 409
0 0 0 0 0 0 0 0 0 0 0 0 0 0 0 0 14 87 15 0 0 0 0 0 796 939 1080 1087 960 703 568 495 489 487 394 354 397 296 160 149 178 216 250 310 364 443 431 655 487
0 0 0 0 0 0 0 0 0 0 0 0 0 0 0 0 0 138 43 1 0 0 0 0 178 567 1119 1094 1001 853 699 621 643 668 600 570 604 618 436 392 307 316 390 513 652 608 729 819 529
0 0 0 0 0 0 0 0 0 0 0 0 0 0 0 0 0 80 114 54 1 0 0 0 0 159 296 476 1181 1089 952 798 808 845 767 705 802 882 683 781 787 461 592 760 947 933 998 993 775
0 0 0 0 0 0 0 0 0 0 0 0 0 0 0 0 0 0 0 0 6 14 0 0 0 1 89 142 425 1140 961 949 915 883 919 716 478 566 565 697 772 666 748 928 1214 1488 1349 1067 589
0 0 0 0 0 0 0 0 0 0 0 0 0 0 0 0 0 0 0 0 0 1 17 1 15 0 40 121 114 470 435 396 463 447 461 522 394 320 530 591 830 896 985 1399 1671 1752 1291 821 275
0 0 0 0 0 0 0 0 0 0 0 0 0 0 0 0 0 0 0 0 0 0 50 114 47 21 11 46 71 209 352 285 329 309 283 452 361 368 529 484 625 766 1125 1033 1194 1374 1039 457 220
0 0 0 0 0 0 0 0 0 0 0 0 0 0 0 0 0 0 0 0 0 0 0 122 110 44 15 0 42 100 239 194 205 255 255 337 328 215 208 315 214 232 542 970 755 600 514 377 198
0 0 0 0 0 0 0 0 0 0 0 0 0 0 0 0 0 0 0 0 0 0 0 0 152 119 90 12 39 98 200 193 151 221 322 266 298 201 121 117 106 100 183 595 435 337 289 158 44
0 0 0 0 0 0 0 0 0 0 0 0 0 0 0 0 0 0 0 0 0 0 0 0 142 161 151 152 116 131 188 214 170 270 367 296 229 99 59 65 41 62 77 141 221 185 170 29 7
0 0 0 0 0 0 0 0 0 0 0 0 0 0 0 0 0 0 0 0 0 0 0 0 13 158 165 209 187 190 208 232 223 294 312 337 192 47 63 71 31 32 17 45 80 95 75 20 0
0 0 0 0 0 0 0 0 0 0 0 0 0 0 0 0 0 0 0 0 0 0 0 0 0 137 189 226 236 219 303 275 250 232 279 303 270 154 114 118 86 39 14 3 39 34 36 0 0
0 0 0 0 0 0 0 0 0 0 0 0 0 0 0 0 0 0 0 0 0 0 0 0 0 7 209 290 195 252 362 381 333 242 262 316 321 253 88 95 65 18 0 0 8 18 0 0 0
0 0 0 0 0 0 0 0 0 0 0 0 0 0 0 0 0 0 0 0 0 0 0 0 0 10 48 66 106 187 252 229 208 305 435 515 529 293 151 116 62 6 0 0 0 0 0 0 0
0 0 0 0 0 0 0 0 0 0 0 0 0 0 0 0 0 0 0 0 0 0 0 0 0 72 151 272 303 191 286 94 57 237 465 434 410 234 156 97 43 0 9 0 0 0 0 2 0
0 0 0 0 0 0 0 0 0 0 0 0 0 0 0 0 0 0 0 0 0 0 0 0 32 302 332 459 109 77 10 0 31 58 350 373 311 298 209 28 31 0 12 2 3 1 1 1 0
0 0 0 0 0 0 0 0 0 0 0 0 0 0 0 0 0 0 0 0 0 0 0 45 291 415 449 316 25 1 0 8 5 0 10 162 283 245 109 51 22 0 4 21 14 1 0 0 1
0 0 0 0 0 0 0 0 0 0 0 0 0 0 0 0 0 0 0 0 0 0 75 333 491 544 364 223 172 150 50 42 0 0 0 1 87 125 69 10 0 1 1 12 0 0 0 0 0
0 0 0 0 0 0 0 0 0 0 0 0 0 0 0 0 0 0 0 0 0 18 179 399 517 521 273 263 199 86 38 0 0 0 0 0 0 40 62 2 0 0 0 0 0 0 0 0 0
0 0 0 0 0 0 0 0 0 0 0 0 0 0 0 0 0 0 0 0 1 23 351 350 518 272 165 149 68 78 44 0 3 0 6 0 0 0 25 14 0 0 0 0 0 0 0 0 0
0 0 0 0 0 0 0 0 0 0 0 0 0 0 0 0 0 0 0 3 40 191 278 206 356 178 45 23 5 0 0 0 0 0 0 0 0 0 0 0 0 0 0 0 0 0 0 0 0
0 0 0 0 0 0 0 0 0 0 0 0 0 0 0 0 0 0 0 20 114 220 184 195 228 35 7 0 0 0 0 0 0 0 0 0 0 0 0 0 0 0 0 0 0 0 0 0 0
0 0 0 0 0 0 0 0 0 0 0 0 0 0 0 0 0 0 16 53 191 165 101 44 34 3 0 0 0 0 0 0 0 0 0 0 0 0 0 0 0 0 0 0 0 0 0 0 0
0 0 0 0 0 0 0 0 0 0 0 0 0 0 0 0 0 4 83 159 111 57 4 0 3 0 0 0 0 0 0 0 0 0 0 0 0 0 0 0 0 0 0 0 0 0 0 0 0
0 0 0 0 0 0 0 0 0 0 0 0 0 0 0 0 2 78 177 168 78 28 0 1 0 0 0 0 0 0 0 0 0 0 0 0 0 0 0 0 0 0 0 0 0 0 0 0 0
0 0 0 0 0 0 0 0 0 0 0 0 0 0 0 2 49 166 234 124 94 94 7 26 0 0 0 0 0 0 0 0 0 0 0 0 0 0 0 0 0 0 0 0 0 0 0 0 0

GFSSGP_con_sbcape_048.txt.gz
CAPE
0 0 0 0 0 0 0 0 0 0 0 0 0 0 0 0 0 0 0 0 0 0 325 646 984 746 618 551 377 257 140 78 55 34 13 0 0 0 0 0 0 0 0 0 0 0 0 0 0
0 0 0 0 0 0 0 0 0 0 0 0 0 0 0 0 0 0 0 0 0 3 294 322 974 842 787 634 545 359 218 129 112 62 26 17 12 0 0 0 0 0 0 0 0 0 0 0 0
0 0 0 0 0 0 0 0 0 0 0 0 0 0 0 0 0 0 0 0 0 8 209 216 1040 821 831 709 650 481 284 211 107 41 37 26 34 51 32 0 0 0 0 0 0 0 0 0 0
0 0 0 0 0 0 0 0 0 0 0 0 0 0 0 0 0 0 0 0 0 0 132 269 1066 830 859 830 699 587 404 260 192 114 118 92 61 111 128 37 16 11 21 32 58 84 86 96 72
0 0 0 0 0 0 0 0 0 0 0 0 0 0 0 0 0 0 0 0 0 0 18 108 1094 892 1015 1082 882 727 536 383 331 277 174 169 180 165 124 63 52 61 69 92 156 257 298 362 363
0 0 0 0 0 0 0 0 0 0 0 0 0 0 0 0 0 0 0 0 0 0 0 0 1100 1071 1039 1296 1098 857 637 470 437 428 319 277 304 248 165 110 115 123 149 208 338 368 495 623 460
0 0 0 0 0 0 0 0 0 0 0 0 0 0 0 0 0 1 0 0 0 0 0 0 383 739 1202 1235 1171 958 741 606 559 521 454 452 503 462 373 297 206 252 341 414 493 610 801 824 597
0 0 0 0 0 0 0 0 0 0 0 0 0 0 0 0 0 23 0 0 0 0 0 0 2 197 485 652 1361 1156 950 801 719 683 687 652 703 663 563 521 621 389 464 583 736 940 1105 1089 973
0 0 0 0 0 0 0 0 0 0 0 0 0 0 0 0 0 0 0 0 0 0 0 0 0 7 82 228 513 1296 1002 1004 939 929 919 617 339 423 363 550 583 563 586 769 1029 1365 1436 1307 909
0 0 0 0 0 0 0 0 0 0 0 0 0 0 0 0 0 0 0 0 0 1 6 0 0 0 2 49 94 421 424 351 451 414 437 367 206 256 409 522 693 610 876 1098 1420 1670 1567 1138 434
0 0 0 0 0 0 0 0 0 0 0 0 0 0 0 0 0 0 0 0 0 0 8 0 0 0 0 24 37 94 319 261 300 248 238 299 211 299 554 350 535 595 1002 707 1181 1456 1416 757 310
0 0 0 0 0 0 0 0 0 0 0 0 0 0 0 0 0 0 0 0 0 0 0 4 19 0 0 3 21 36 180 198 213 247 190 246 235 164 259 296 229 336 470 742 720 718 767 573 309
0 0 0 0 0 0 0 0 0 0 0 0 0 0 0 0 0 0 0 0 0 0 0 0 37 28 14 1 0 7 58 183 116 168 192 190 202 108 65 175 110 65 71 326 577 483 445 391 256
0 0 0 0 0 0 0 0 0 0 0 0 0 0 0 0 0 0 0 0 0 0 0 0 0 39 53 7 0 9 20 102 70 91 183 184 154 52 44 29 28 16 6 101 366 330 364 374 155
0 0 0 0 0 0 0 0 0 0 0 0 0 0 0 0 0 0 0 0 0 0 0 0 0 4 23 40 22 3 23 73 85 99 167 226 126 26 35 11 1 0 1 33 80 120 76 64 4
0 0 0 0 0 0 0 0 0 0 0 0 0 0 0 0 0 0 0 0 0 0 0 0 0 0 14 75 81 47 36 116 127 141 250 305 170 85 26 5 8 0 0 7 29 53 63 57 31
0 0 0 0 0 0 0 0 0 0 0 0 0 0 0 0 0 0 0 0 0 0 0 0 0 0 3 50 72 50 63 130 101 106 236 321 288 129 53 26 15 3 19 0 4 0 19 0 0
0 0 0 0 0 0 0 0 0 0 0 0 0 0 0 0 0 0 0 0 0 0 0 0 0 0 0 1 0 30 87 123 105 135 210 265 317 257 75 71 50 15 0 0 0 0 0 0 0
0 0 0 0 0 0 0 0 0 0 0 0 0 0 0 0 0 0 0 0 0 0 0 0 0 0 0 4 29 44 218 115 96 166 277 303 340 269 201 75 56 0 0 5 0 0 6 0 0
0 0 0 0 0 0 0 0 0 0 0 0 0 0 0 0 0 0 0 0 0 0 0 0 0 0 0 10 9 32 22 2 55 126 347 429 413 265 270 209 29 0 0 0 0 0 42 45 10
0 0 0 0 0 0 0 0 0 0 0 0 0 0 0 0 0 0 0 0 0 0 0 0 0 0 1 4 0 0 0 0 0 8 102 257 328 304 239 111 8 0 0 0 1 12 40 11 6
0 0 0 0 0 0 0 0 0 0 0 0 0 0 0 0 0 0 0 0 0 0 0 0 1 6 10 3 8 30 67 84 1 0 11 45 188 179 41 0 0 0 0 0 1 1 0 0 1
0 0 0 0 0 0 0 0 0 0 0 0 0 0 0 0 0 0 0 0 0 0 0 6 49 78 4 5 7 0 0 0 0 0 0 0 0 3 31 2 0 0 0 0 0 1 1 0 0
0 0 0 0 0 0 0 0 0 0 0 0 0 0 0 0 0 0 0 0 0 0 3 71 141 33 9 4 0 0 0 0 0 0 0 0 0 0 3 0 0 0 0 0 0 0 0 0 0
0 0 0 0 0 0 0 0 0 0 0 0 0 0 0 0 0 0 0 0 0 0 60 100 68 22 4 0 0 0 0 0 0 0 0 0 0 0 0 0 0 0 0 0 0 0 0 0 0
0 0 0 0 0 0 0 0 0 0 0 0 0 0 0 0 0 0 0 0 0 34 73 125 25 3 0 0 0 0 0 0 0 0 0 0 0 0 0 0 0 0 0 0 0 0 0 0 0
0 0 0 0 0 0 0 0 0 0 0 0 0 0 0 0 0 0 0 0 7 63 22 23 0 0 0 0 0 0 0 0 0 0 0 0 0 0 0 0 0 0 0 0 0 0 0 0 0
0 0 0 0 0 0 0 0 0 0 0 0 0 0 0 0 0 0 0 5 55 13 0 0 0 0 0 0 0 0 0 0 0 0 0 0 0 0 0 0 0 0 0 0 0 0 0 0 0
0 0 0 0 0 0 0 0 0 0 0 0 0 0 0 0 0 0 10 35 48 0 0 0 0 0 0 0 0 0 0 0 0 0 0 0 0 0 0 0 0 0 0 0 0 0 0 0 0
0 0 0 0 0 0 0 0 0 0 0 0 0 0 0 0 0 9 15 54 47 0 0 0 0 0 0 0 0 0 0 0 0 0 0 0 0 0 0 0 0 0 0 0 0 0 0 0 2